This is the latest recevied weather packets stored in our database for station/object KC9GSD. If no packets are shown the sender has not sent any weather packets the latest 10 day(s).
| Time | Temp. | Humidity | Pressure | Rain* | Wind** | Luminosity | Snow |
|---|---|---|---|---|---|---|---|
| 1777671896 | 17.78° C | 60% | 1012.2 hPa | 0 mm | - | 165 W/m² | - |
| 1777671592 | 17.22° C | 58% | 1012.3 hPa | 0 mm | - | 208 W/m² | - |
| 1777671290 | 17.22° C | 59% | 1012.4 hPa | 0 mm | - | 201 W/m² | - |
| 1777670984 | 17.78° C | 62% | 1012.4 hPa | 0 mm | - | 198 W/m² | - |
| 1777670682 | 17.78° C | 59% | 1012.3 hPa | 0 mm | - | 200 W/m² | - |
| 1777670378 | 17.78° C | 59% | 1012.3 hPa | 0 mm | - | 222 W/m² | - |
| 1777670076 | 17.22° C | 58% | 1012.5 hPa | 0 mm | - | 193 W/m² | - |
| 1777669773 | 17.78° C | 58% | 1012.6 hPa | 0 mm | - | 178 W/m² | - |
| 1777669470 | 17.78° C | 57% | 1012.7 hPa | 0 mm | - | 191 W/m² | - |
| 1777669166 | 17.78° C | 62% | 1012.9 hPa | 0 mm | - | 198 W/m² | - |
| 1777668863 | 17.78° C | 57% | 1013.2 hPa | 0 mm | - | 195 W/m² | - |
| 1777668560 | 17.78° C | 57% | 1013.1 hPa | 0 mm | - | 230 W/m² | - |
| 1777668256 | 18.33° C | 56% | 1013.2 hPa | 0 mm | - | 287 W/m² | - |
| 1777667953 | 18.33° C | 57% | 1013.2 hPa | 0 mm | - | 297 W/m² | - |
| 1777667650 | 18.33° C | 54% | 1013.5 hPa | 0 mm | - | 299 W/m² | - |
| 1777667348 | 17.78° C | 58% | 1013.5 hPa | 0 mm | - | 267 W/m² | - |
| 1777667044 | 18.33° C | 53% | 1013.5 hPa | 0 mm | - | 318 W/m² | - |
| 1777666741 | 18.33° C | 52% | 1013.7 hPa | 0 mm | - | 365 W/m² | - |
| 1777666438 | 18.33° C | 51% | 1013.7 hPa | 0 mm | - | 316 W/m² | - |
| 1777666134 | 18.33° C | 55% | 1014 hPa | 0 mm | - | 362 W/m² | - |
| 1777665831 | 17.78° C | 50% | 1014.2 hPa | 0 mm | - | 305 W/m² | - |
| 1777665529 | 18.33° C | 53% | 1014.2 hPa | 0 mm | - | 287 W/m² | - |
| 1777665224 | 18.89° C | 54% | 1014.4 hPa | 0 mm | - | 335 W/m² | - |
| 1777664921 | 18.89° C | 57% | 1014.5 hPa | 0 mm | - | 383 W/m² | - |
| 1777664617 | 18.33° C | 54% | 1014.5 hPa | 0 mm | - | 464 W/m² | - |
* Rain latest hour (hover to see other rain measurements)
** Current wind speed in m/s (hover to see current wind gust speed)